Home > Weather > Recklinghausen > Past weeks

Flag for Germany Weather for the Past 2 Weeks in Recklinghausen, North Rhine-Westphalia, Germany

Now
48 °F

Passing clouds.


Feels Like: 44 °F
Forecast: 39 / 64 °F
Wind: 10 mph from Northeast

Location: Dortmund / Wickede

Current Time: May 1, 2016 at 11:57:33 AM

Latest Report: May 1, 2016 at 11:20 AM


Visibility: N/A

Pressure: 30.30 "Hg

Humidity: 66%

Dew Point: 37 °F

Location of RecklinghausenLocation

Historic Weather in Recklinghausen — Graph

°F

Recklinghausen Temperature Yesterday

Maximum temperature yesterday: 48 °F (at 4:50 PM)
Minimum temperature yesterday: 39 °F (at 8:20 AM)
Average temperature yesterday: 44 °F

High & Low Weather Summary for the Past Weeks

 TemperatureHumidityPressure
High63 °F (Apr 21, 4:50 PM)93% (Apr 20, 7:20 AM)30.48 "Hg (Apr 20, 7:20 AM)
Low32 °F (Apr 20, 5:50 AM)33% (Apr 20, 6:50 PM)29.45 "Hg (Apr 26, 1:50 PM)
Average45 °F65%29.97 "Hg
* Reported Apr 16 10:50 AM — May 1 10:20 AM, Recklinghausen, Weather by CustomWeather, © 2016

Note: Actual official high and low records may vary slightly from our data, if they occured in-between our weather recording intervals... More about our weather records

Advertising

Recklinghausen Weather History for the Previous 24 Hours

Scroll right to see more
 ConditionsComfort  
Time TempWeatherWind HumidityBarometerVisibility
10:20 AM
Sun, May 1
46 °FScattered clouds.9 mph66%30.27 "HgN/A
9:50 AM45 °FPartly sunny.9 mph71%30.27 "HgN/A
8:50 AM43 °FBroken clouds.9 mph76%30.27 "HgN/A
8:20 AM41 °FBroken clouds.7 mph81%30.27 "HgN/A
7:50 AM41 °FPartly sunny.7 mph81%30.27 "HgN/A
7:20 AM41 °FBroken clouds.8 mph81%30.24 "HgN/A
6:20 AM41 °FPassing clouds.7 mph87%30.24 "HgN/A
5:50 AM41 °FLight rain. Partly cloudy.5 mph87%30.24 "HgN/A
5:20 AM41 °FLight rain. Passing clouds.3 mph87%30.24 "HgN/A
9:50 PM
Sat, Apr 30
45 °FPassing clouds.5 mph76%30.15 "HgN/A
9:20 PM45 °FPassing clouds.5 mph76%30.15 "HgN/A
8:50 PM45 °FSunny.3 mph76%30.12 "Hg10 mi
8:20 PM46 °FPassing clouds.5 mph71%30.12 "HgN/A
7:50 PM46 °FSunny.6 mph71%30.12 "Hg10 mi
7:20 PM46 °FPassing clouds.6 mph71%30.12 "HgN/A
6:50 PM46 °FScattered clouds.7 mph71%30.12 "HgN/A
6:20 PM48 °FScattered clouds.7 mph66%30.12 "HgN/A
5:50 PM48 °FPassing clouds.5 mph66%30.12 "HgN/A
5:20 PM48 °FPassing clouds.6 mph66%30.09 "HgN/A
4:50 PM48 °FPassing clouds.5 mph66%30.09 "HgN/A
4:20 PM46 °FScattered clouds.5 mph66%30.09 "HgN/A
3:50 PM46 °FScattered clouds.6 mph71%30.09 "HgN/A
3:20 PM46 °FScattered clouds.3 mph71%30.09 "HgN/A
2:50 PM46 °FScattered clouds.6 mph71%30.09 "HgN/A
2:20 PM45 °FDrizzle. Broken clouds.3 mph76%30.09 "Hg6 mi
1:50 PM45 °FDrizzle. Broken clouds.3 mph76%30.09 "Hg6 mi
1:20 PM45 °FDrizzle. Partly sunny.2 mph76%30.09 "HgN/A
12:50 PM45 °FDrizzle. Broken clouds.3 mph71%30.09 "HgN/A
12:20 PM43 °FDrizzle. Broken clouds.3 mph76%30.09 "Hg6 mi
11:50 AM43 °FDrizzle. Partly sunny.3 mph76%30.09 "Hg6 mi
11:20 AM41 °FDrizzle. Partly sunny.2 mph81%30.07 "Hg6 mi
Weather by CustomWeather, © 2016

See weather overviewHow to use our weather pages